Simultaneous Nadir Overpasses (SNOs) Predictions

Prediction of SNOs between NOAA-15 and METOP-C Satellite Orbit:

Table of predicted SNOs for the next 14.0 days since TLE Epoch: 2/17/2024
Index Date (NOAA-15) Time (NOAA-15) Lat,Lon (NOAA-15) SZA (NOAA-15 ) Date (METOP-C) Time (METOP-C) Lat,Lon (METOP-C) SZA (METOP-C ) Distance(km) Time Diff (sec)
1 02/25/2024 23:03:32 81.06,-127.48 91.63 02/25/2024 23:02:19 81.07,-127.53 91.60 1.75 73
2 02/25/2024 23:54:04 -81.06, 39.81 88.40 02/25/2024 23:53:01 -81.07, 39.72 88.42 1.81 63
3 02/26/2024 00:44:33 81.07,-153.00 91.59 02/26/2024 00:43:41 81.07,-153.02 91.56 0.70 52
4 02/26/2024 01:35:05 -81.08, 14.29 88.44 02/26/2024 01:34:23 -81.07, 14.23 88.47 1.66 42
5 02/26/2024 02:25:33 81.07,-178.15 91.56 02/26/2024 02:25:02 81.08,-178.14 91.56 0.92 31
6 02/26/2024 03:16:05 -81.07, -10.87 88.46 02/26/2024 03:15:44 -81.07, -10.89 88.47 0.27 21
7 02/26/2024 04:06:34 81.08, 156.32 91.53 02/26/2024 04:06:24 81.07, 156.37 91.52 1.46 10
8 02/26/2024 04:57:05 -81.07, -36.03 88.48 02/26/2024 04:57:05 -81.08, -36.00 88.47 1.61 0
9 02/26/2024 05:47:34 81.08, 131.17 91.50 02/26/2024 05:47:45 81.08, 131.26 91.52 1.54 11
10 02/26/2024 06:38:06 -81.08, -61.56 88.52 02/26/2024 06:38:27 -81.08, -61.49 88.51 1.28 21
11 02/26/2024 07:28:35 81.09, 105.64 91.47 02/26/2024 07:29:07 81.07, 105.77 91.47 2.74 32
12 02/26/2024 08:19:06 -81.08, -86.72 88.54 02/26/2024 08:19:48 -81.09, -86.61 88.51 2.10 42
13 02/26/2024 09:09:35 81.09, 80.49 91.44 02/26/2024 09:10:28 81.08, 80.65 91.48 2.77 53
14 02/26/2024 10:00:07 -81.09,-112.25 88.58 02/26/2024 10:01:10 -81.08,-112.10 88.55 2.83 63



Historial Predications of SNOs between NOAA-15 and METOP-C
